Regional Weather Roundup
Issued by NWS

Home | Current Version | Previous Version | Graphics & Text | Print | Product List | Glossary Off
Versions: 1 2 3 4 5 6 7 8 9 10 11 12 13 14 15 16 17 18 19 20 21 22 23 24 25 26 27 28 29 30 31 32 33 34 35 36 37 38 39 40 41 42 43 44 45 46 47 48 49 50

000
ASUS43 KMKX 152211
RWRWI

WISCONSIN REGIONAL WEATHER ROUNDUP
NATIONAL WEATHER SERVICE MILWAUKEE/SULLIVAN WI
500 PM CDT MON SEP 15 2014

NOTE: "FAIR" INDICATES FEW OR NO CLOUDS BELOW 12,000 FEET WITH NO
SIGNIFICANT WEATHER AND/OR OBSTRUCTIONS TO VISIBILITY.

WIZ001-002-006>008-014>016-023>028-152300-
NORTHWEST WISCONSIN

CITY           SKY/WX    TMP DP  RH WIND       PRES   REMARKS
SUPERIOR ARPT  PTSUNNY   60  37  43 NW7       30.16S
ASHLAND        SUNNY     56  36  47 NW8       30.16F
HAYWARD        PTSUNNY   56  35  45 VRB7      30.17R
SIREN          CLOUDY    59  35  40 NW13      30.18S
RICE LAKE      SUNNY     58  34  40 W12       30.18S
LADYSMITH      MOSUNNY   59  38  45 NW10      30.17S
EAU CLAIRE     MOSUNNY   61  36  39 NW16      30.16S
MENOMONIE      PTCLDY    61  35  38 W7        30.18S
NEW RICHMOND   MOSUNNY   60  35  38 N8        30.19S
OSCEOLA        MOSUNNY   60  38  43 W10       30.21S
$$

WIZ003>005-009-010-017-018-152300-
NORTH CENTRAL WISCONSIN

CITY           SKY/WX    TMP DP  RH WIND       PRES   REMARKS
WOODRUFF       MOSUNNY   57  37  46 NW13G18   30.13R
RHINELANDER    MOSUNNY   58  37  45 NW12      30.12S
EAGLE RIVER    PTSUNNY   57  34  41 NW9       30.11R
LAND O LAKES   MOSUNNY   56  37  49 NW9       30.13R
PHILLIPS       PTSUNNY   56  36  46 NW9       30.13S
TOMAHAWK       SUNNY     56  36  46 W9        30.13S
MEDFORD        MOSUNNY   56  38  50 NW8       30.14R
MERRILL        PTSUNNY   60  37  43 N12G22    30.12R
$$

WIZ029-030-035-036-043>047-152300-
CENTRAL WISCONSIN

CITY           SKY/WX    TMP DP  RH WIND       PRES   REMARKS
WAUSAU         CLOUDY    59  41  51 NW8       30.10S
MOSINEE        MOSUNNY   59  43  55 NW9       30.12F
MARSHFIELD     MOSUNNY   59  40  49 N14       30.13S
STEVENS POINT  PTSUNNY   57  42  57 NW3       30.13R
WAUPACA        MOSUNNY   60  50  69 SW6       30.12S
WAUTOMA        SUNNY     59  46  61 NW7       30.13S
WISC RAPIDS    LGT RAIN  59  47  64 NW7       30.14R
CAMP DOUGLAS   MOSUNNY   61  52  72 W10       30.14S
$$

WIZ011>013-019>022-031-037>040-048>050-152300-
NORTHEAST WISCONSIN

CITY           SKY/WX    TMP DP  RH WIND       PRES   REMARKS
ANTIGO         MOSUNNY   57  42  58 NW10G16   30.11R
STURGEON BAY   PTSUNNY   59  45  58 W8        30.10R
GREEN BAY      MOSUNNY   61  49  64 W6        30.10F
MANITOWOC      CLOUDY    57  51  80 W6        30.11S
APPLETON       MOSUNNY   75  46  35 W6        30.12S
CLINTONVILLE   MOSUNNY   61  39  44 W8        30.10S
OSHKOSH        PTSUNNY   58  49  72 NW8       30.11S
$$

WIZ032>034-041-042-053>061-152300-
SOUTHWEST WISCONSIN

CITY           SKY/WX    TMP DP  RH WIND       PRES   REMARKS
LA CROSSE      PTSUNNY   63  46  54 NW12      30.16S
SPARTA         PTSUNNY   59  45  59 NW7       30.16R
VIROQUA        FAIR      58  46  63 NW8G16    30.16S
BOSCOBEL       SUNNY     62  45  53 N7        30.16F
PRAIRIE DU CHI MOSUNNY   59  42  52 N7        30.16S
PLATTEVILLE    PTSUNNY   56  50  78 N8        30.16S
$$

WIZ056-057-062-063-064-067-068-152300-
SOUTH CENTRAL WISCONSIN

CITY           SKY/WX    TMP DP  RH WIND       PRES   REMARKS
BARABOO/DELLS    N/A    N/A N/A N/A CALM      30.14S
LONE ROCK      SUNNY     63  45  51 N8        30.15S
WATERTOWN      PTSUNNY   54  49  84 N7        30.12S
MADISON        PTSUNNY   56  48  74 N8        30.14R
MIDDLETON      MOCLDY    57  48  72 N6        30.15R
MONROE         CLOUDY    52  50  93 N9        30.14R
JANESVILLE     CLOUDY    55  48  76 N8        30.13R
$$

WIZ051-052-058>065-066-070>072-152300-
SOUTHEAST WISCONSIN

CITY           SKY/WX    TMP DP  RH WIND       PRES   REMARKS
MILWAUKEE      PTSUNNY   54  51  90 N7        30.12R
WAUKESHA       PTSUNNY   52  48  87 N5        30.13R
MILWAUKEE/TIMM DRIZZLE   54  50  87 N7        30.13R
RACINE         CLOUDY    54  52  93 N7        30.12S
BURLINGTON     CLOUDY    52  50  92 N7        30.12R
KENOSHA        CLOUDY    54  52  93 N7        30.11S
FOND DU LAC    CLOUDY    56  49  77 W8        30.12S
SHEBOYGAN      CLOUDY    55  50  83 NW7       30.12S
WEST BEND      CLOUDY    54  46  76 NW5       30.12S
JUNEAU         PTSUNNY   55  49  79 NW5       30.14R
$$

LSZ147-162-152300-
LAKE SUPERIOR

STATION/POSITION TIME  TEMP    WIND        PRES    WAVE
                       AIR SEA DIR/SP/G            HT/PER
                 (UTC) (F)     (DEG/KT/KT) (MB)    (FT/S)
W MID LAKE BUOY  2150   51 48  240/ 10/ 12 1019.7F   1/ 4
DEVILS ISLAND    2200   53     240/ 14/ 17 1020.6F
PORT WING        2100   56     270/  6/  9 1021.3F
SAXON HARBOR     2100   56     290/ 11/ 14 1021.0F
$$

LMZ867-665-643>646-152300-
LAKE MICHIGAN

STATION/POSITION TIME  TEMP    WIND        PRES    WAVE
                       AIR SEA DIR/SP/G            HT/PER
                 (UTC) (F)     (DEG/KT/KT) (MB)    (FT/S)
N MID LAKE BUOY  2150   56 60  240/  8/ 10 1018.8S   1
NORTHPORT PIER   2100   58     130/  9/ 11 1018.3F
KEWAUNEE LAKESHO 2100   57     270/  6/  8 1018.3S
SHEBOYGAN LAKESH 2200   52 49   CALM  /  1 1020.2S
PORT WASHINGTON  2100   54      80/  1/  2 1020.3
ATWATER BUOY     2200   55     360/ 10/ 14 1020.8R
MILWAUKEE LAKESH 2100   53      10/  8/ 10   N/A
S MID LAKE BUOY  2150   57 65  340/ 19/ 23 1018.8F   2/ 3
KENOSHA   LAKESH 2200   54      10/ 11/ 12 1019.3R
$$

TC  - TEMPERATURE IN CELSIUS
VSB - VISIBILITY IN STATUTE MILES
WCI - WIND CHILL INDEX
HX  - HEAT INDEX




USA.gov is the U.S. government's official web portal to all federal, state and local government web resources and services.